Weather History for Shannon, Ireland

Change the Weather History Date:

Sunday, October 14, 2012

  Actual Average Record
Temperature  
Mean Temperature 45 °F -  
Max Temperature 55 °F 55 °F 64 °F (2007)
Min Temperature 35 °F 43 °F 35 °F (2012)
Degree Days  
Heating Degree Days 20    
Moisture  
Dew Point 43 °F    
Average Humidity 90    
Maximum Humidity 100    
Minimum Humidity 57    
Precipitation  
Precipitation 0.08 in 0.12 in - ()
Sea Level Pressure  
Sea Level Pressure 29.68 in    
Wind  
Wind Speed 5 mph ()    
Max Wind Speed 18 mph    
Max Gust Speed -    
Visibility 4.0 miles    
Events Fog , Rain    
Averages and records for this station are not official NWS values.
T = Trace of Precipitation, MM = Missing Value Source: Averaged Metar Reports

Daily Weather History Graph

Daily Weather History Graph

Search for Another Location

Airport:

Trip Planner

Search our weather history database for the weather conditions in past years. The results will help you decide how hot, cold, wet, or windy it might be!

Date:

Astronomy

Oct. 14, 2012 Rise Set
Actual Time 8:00 AM IST 6:42 PM IST
Civil Twilight 7:25 AM IST 7:16 PM IST
Nautical Twilight 6:45 AM IST 7:56 PM IST
Astronomical Twilight 6:06 AM IST 8:35 PM IST
Moon 6:39 AM IST (10/14) 5:53 PM IST (10/14)
Length of Visible Light 11h 50m
Length of Day
10h 41m
Waning Crescent, 2% of the Moon is Illuminated
Oct 14
Waning Crescent
Oct 15
New
Oct 22
First Quarter
Oct 29
Full
Nov 7
Last Quarter

Hourly Weather History & Observations

Time (IST) Temp. Windchill Dew Point Humidity Pressure Visibility Wind Dir Wind Speed Gust Speed Precip Events Conditions
12:00 AM 41.0 °F - 41.0 °F 100% 29.65 in 6.2 mi NNE 2.3 mph - N/A Fog Shallow Fog
12:30 AM 41.0 °F - 41.0 °F 100% 29.65 in 5.6 mi NE 2.3 mph - N/A Fog Shallow Fog
1:00 AM 41.0 °F - 41.0 °F 100% 29.65 in 3.7 mi ESE 1.2 mph - N/A Fog Shallow Fog
1:30 AM 39.2 °F - 39.2 °F 100% 29.65 in 0.9 mi NE 2.3 mph - N/A Fog Shallow Fog
2:00 AM 39.2 °F - 39.2 °F 100% 29.65 in 0.7 mi NNE 1.2 mph - N/A Fog Shallow Fog
2:30 AM 39.2 °F - 39.2 °F 100% 29.65 in 0.4 mi ENE 2.3 mph - N/A Fog Shallow Fog
3:00 AM 39.2 °F 37.0 °F 39.2 °F 100% 29.65 in 0.3 mi East 3.5 mph - N/A Fog Fog
3:30 AM 39.2 °F - 39.2 °F 100% 29.65 in 0.2 mi NE 2.3 mph - N/A Fog Fog
4:00 AM 39.2 °F - 39.2 °F 100% 29.65 in 0.1 mi NNE 1.2 mph - N/A Fog Fog
4:30 AM 37.4 °F - 37.4 °F 100% 29.65 in 0.2 mi West 2.3 mph - N/A Fog Fog
5:00 AM 37.4 °F - 37.4 °F 100% 29.65 in 0.2 mi NNE 1.2 mph - N/A Fog Fog
5:30 AM 39.2 °F - 39.2 °F 100% 29.65 in 0.2 mi NE 2.3 mph - N/A Fog Fog
6:00 AM 39.2 °F - 39.2 °F 100% 29.65 in 0.2 mi Calm Calm - N/A Fog Fog
6:30 AM 39.2 °F - 39.2 °F 100% 29.68 in 0.2 mi NNE 1.2 mph - N/A Fog Fog
7:00 AM 38 °F - 38 °F 99% 29.69 in 0 mi Calm Calm - - Fog Partial Fog
7:00 AM 37.4 °F - 37.4 °F 100% 29.68 in 0.5 mi Calm Calm - N/A Fog Fog
7:30 AM 37.4 °F 34.9 °F 37.4 °F 100% 29.68 in 0.4 mi NE 3.5 mph - N/A Fog Fog
8:00 AM 35.6 °F - 35.6 °F 100% 29.68 in 0.3 mi ENE 2.3 mph - N/A Fog Fog
8:30 AM 35.6 °F - 35.6 °F 100% 29.68 in 0.3 mi Calm Calm - N/A Fog Fog
9:00 AM 37.4 °F - 37.4 °F 100% 29.68 in 1.1 mi Calm Calm - N/A   Partly Cloudy
9:30 AM 44.6 °F - 44.6 °F 100% 29.68 in 2.8 mi WNW 2.3 mph - N/A   Partly Cloudy
10:00 AM 46.4 °F 45.2 °F 46.4 °F 100% 29.71 in 5.0 mi West 3.5 mph - N/A   Partly Cloudy
10:30 AM 48.2 °F - 46.4 °F 93% 29.71 in 6.2 mi WSW 4.6 mph - N/A   Partly Cloudy
11:00 AM 50.0 °F - 46.4 °F 87% 29.71 in 6.2 mi WSW 5.8 mph - N/A   Partly Cloudy
11:30 AM 50.0 °F - 46.4 °F 87% 29.71 in 6.2 mi West 8.1 mph - N/A   Partly Cloudy
12:00 PM 53.6 °F - 46.4 °F 77% 29.71 in 6.2 mi WNW 10.4 mph - N/A   Scattered Clouds
12:30 PM 53.6 °F - 44.6 °F 72% 29.71 in 6.2 mi WNW 15.0 mph - N/A   Scattered Clouds
1:00 PM 54 °F - 43 °F 57% 29.72 in 28 mi WNW 15.7 mph - -   Partly Cloudy
1:00 PM 55.4 °F - 42.8 °F 63% 29.71 in 6.2 mi WNW 15.0 mph - N/A   Mostly Cloudy
1:30 PM 53.6 °F - 44.6 °F 72% 29.71 in 6.2 mi NW 13.8 mph - N/A   Mostly Cloudy
2:00 PM 53.6 °F - 44.6 °F 72% 29.71 in 6.2 mi WNW 17.3 mph - N/A   Mostly Cloudy
2:30 PM 53.6 °F - 44.6 °F 72% 29.71 in 6.2 mi WNW 16.1 mph - N/A   Mostly Cloudy
3:00 PM 55.4 °F - 44.6 °F 67% 29.71 in 6.2 mi West 17.3 mph - N/A   Mostly Cloudy
3:30 PM 53.6 °F - 44.6 °F 72% 29.71 in 6.2 mi West 18.4 mph - N/A   Mostly Cloudy
4:00 PM 53.6 °F - 44.6 °F 72% 29.71 in 6.2 mi West 18.4 mph - N/A   Mostly Cloudy
4:30 PM 51.8 °F - 46.4 °F 82% 29.68 in 6.2 mi West 15.0 mph - N/A   Mostly Cloudy
5:00 PM 53.6 °F - 46.4 °F 77% 29.68 in 6.2 mi West 12.7 mph - N/A   Mostly Cloudy
5:30 PM 51.8 °F - 46.4 °F 82% 29.68 in 6.2 mi West 13.8 mph - N/A   Mostly Cloudy
6:00 PM 53.6 °F - 46.4 °F 77% 29.68 in 6.2 mi West 12.7 mph - N/A Rain Light Rain Showers
6:30 PM 51.8 °F - 46.4 °F 82% 29.68 in 6.2 mi West 10.4 mph - N/A   Mostly Cloudy
7:00 PM 52 °F - 47 °F 79% 29.70 in 7 mi West 13.4 mph - - Rain Light Rain
7:00 PM 51.8 °F - 48.2 °F 88% 29.68 in 6.2 mi West 11.5 mph - N/A Rain Light Rain
7:30 PM 50.0 °F - 48.2 °F 94% 29.68 in 5.0 mi West 11.5 mph - N/A Rain Light Rain
8:00 PM 50.0 °F - 48.2 °F 94% 29.68 in 6.2 mi West 9.2 mph - N/A Rain Light Rain
8:30 PM 50.0 °F - 50.0 °F 100% 29.68 in 5.0 mi WSW 9.2 mph - N/A Rain Light Rain
9:00 PM 50.0 °F - 50.0 °F 100% 29.68 in 6.2 mi ENE 1.2 mph - N/A   Mostly Cloudy
9:30 PM 50.0 °F - 50.0 °F 100% 29.68 in 6.2 mi West 2.3 mph - N/A   Mostly Cloudy
10:00 PM 50.0 °F - 48.2 °F 94% 29.68 in 6.2 mi WNW 4.6 mph - N/A   Mostly Cloudy
10:30 PM 50.0 °F - 48.2 °F 94% 29.68 in 6.2 mi WNW 4.6 mph - N/A   Mostly Cloudy
11:00 PM 50.0 °F - 48.2 °F 94% 29.68 in 6.2 mi West 3.5 mph - N/A   Mostly Cloudy
11:30 PM 50.0 °F - 50.0 °F 100% 29.68 in 6.2 mi WNW 2.3 mph - N/A   Light Drizzle